New Bedford, MA

5:16 AM EDT on August 24, 2017 (GMT -0400)
New Bedford Regional

Weather History for KEWB - November, 2011

Change the Weather History Date:

Monday, November 7, 2011

  Actual Average Record
Temperature  
Mean Temperature 50 °F -  
Max Temperature 61 °F 54 °F 72 °F (1975)
Min Temperature 39 °F 41 °F 24 °F (2002)
Degree Days  
Heating Degree Days 15    
Moisture  
Dew Point 43 °F    
Average Humidity 77    
Maximum Humidity 97    
Minimum Humidity 54    
Precipitation  
Precipitation 0.00 in - - ()
Sea Level Pressure  
Sea Level Pressure 30.26 in    
Wind  
Wind Speed 7 mph (SW)    
Max Wind Speed 15 mph    
Max Gust Speed 25 mph    
Visibility 10 miles    
Events      
Averages and records for this station are not official NWS values.
T = Trace of Precipitation, MM = Missing Value Source: NWS Daily Summary

Daily Weather History Graph

Daily Weather History Graph

Search for Another Location

Airport or City:

Trip Planner

Search our weather history database for the weather conditions in past years. The results will help you decide how hot, cold, wet, or windy it might be!

Date:

Astronomy

Nov. 07, 2011 Rise Set
Actual Time 6:22 AM EST 4:31 PM EST
Civil Twilight 5:53 AM EST 5:00 PM EST
Nautical Twilight 5:20 AM EST 5:33 PM EST
Astronomical Twilight 4:47 AM EST 6:06 PM EST
Moon 2:42 PM EST (11/7) 3:20 AM EST (11/7)
Length of Visible Light 11h 07m
Length of Day
10h 08m
Waxing Gibbous, 91% of the Moon is Illuminated
Nov 7
Waxing Gibbous
Nov 10
Full
Nov 18
Last Quarter
Nov 25
New
Dec 2
First Quarter

Hourly Weather History & Observations

Time (EST) Temp. Windchill Dew Point Humidity Pressure Visibility Wind Dir Wind Speed Gust Speed Precip Events Conditions
12:53 AM 39.9 °F 35.8 °F 39.0 °F 97% 30.34 in 10.0 mi SSW 5.8 mph - N/A   Clear
1:53 AM 44.1 °F 40.1 °F 41.0 °F 89% 30.33 in 10.0 mi SW 6.9 mph - N/A   Clear
2:53 AM 44.6 °F 40.7 °F 42.8 °F 93% 30.33 in 10.0 mi SW 6.9 mph - N/A   Clear
3:53 AM 45.0 °F 43.5 °F 41.0 °F 86% 30.31 in 10.0 mi SSW 3.5 mph - N/A   Clear
4:53 AM 42.1 °F 38.4 °F 39.0 °F 89% 30.31 in 10.0 mi SW 5.8 mph - N/A   Clear
5:53 AM 43.0 °F 41.3 °F 39.0 °F 86% 30.31 in 10.0 mi South 3.5 mph - N/A   Clear
6:53 AM 46.0 °F 43.1 °F 41.0 °F 83% 30.31 in 10.0 mi SW 5.8 mph - N/A   Clear
7:53 AM 50.0 °F - 44.6 °F 82% 30.31 in 10.0 mi WSW 8.1 mph - N/A   Clear
8:53 AM 52.0 °F - 44.1 °F 74% 30.30 in 10.0 mi WSW 15.0 mph 25.3 mph N/A   Clear
9:53 AM 55.0 °F - 42.1 °F 62% 30.29 in 10.0 mi WSW 13.8 mph 20.7 mph N/A   Partly Cloudy
10:53 AM 57.9 °F - 42.1 °F 56% 30.27 in 10.0 mi WSW 8.1 mph - N/A   Clear
11:53 AM 59.0 °F - 45.0 °F 60% 30.24 in 10.0 mi WSW 8.1 mph 18.4 mph N/A   Clear
12:53 PM 60.1 °F - 45.0 °F 57% 30.22 in 10.0 mi SW 10.4 mph 18.4 mph N/A   Clear
1:53 PM 61.0 °F - 44.1 °F 54% 30.21 in 10.0 mi WSW 9.2 mph - N/A   Clear
2:53 PM 59.0 °F - 46.0 °F 62% 30.21 in 10.0 mi SSW 9.2 mph - N/A   Clear
3:53 PM 55.4 °F - 44.6 °F 67% 30.20 in 10.0 mi SSW 11.5 mph - N/A   Clear
4:53 PM 53.1 °F - 44.1 °F 71% 30.21 in 10.0 mi WSW 5.8 mph - N/A   Clear
5:53 PM 51.8 °F - 44.6 °F 76% 30.22 in 10.0 mi WSW 5.8 mph - N/A   Clear
6:53 PM 52.0 °F - 45.0 °F 77% 30.23 in 10.0 mi SW 5.8 mph - N/A   Clear
7:53 PM 50.0 °F - 45.0 °F 83% 30.23 in 10.0 mi SW 4.6 mph - N/A   Clear
8:53 PM 48.2 °F - 44.6 °F 87% 30.24 in 10.0 mi SSW 3.5 mph - N/A   Clear
9:53 PM 48.9 °F - 44.1 °F 83% 30.23 in 10.0 mi Calm Calm - N/A   Clear
10:53 PM 46.0 °F - 42.1 °F 86% 30.22 in 10.0 mi Calm Calm - N/A   Clear
11:53 PM 46.0 °F - 41.0 °F 83% 30.22 in 10.0 mi Calm Calm - N/A   Clear